Location: Newark
(50.9000°N, 14.8333°E)
Time: 14:56:17
(UTC+00:00)

ISS - Pass Details

Date: 04 November 2020
Orbit: 418 x 420 km, 51.6° (Epoch: 30 November)

Event Time Altitude Azimuth Distance (km) Brightness Sun altitude
Exits shadow 04:55:32 16° 278° (W) 1,215 -2.1 -10.2°
Maximum altitude 04:58:07 57° 203° (SSW) 504 -3.4 -9.8°
Drops below altitude 10° 05:01:26 10° 123° (ESE) 1,504 0.4 -9.3°
Sets 05:03:33 0° 120° (ESE) 2,367 1.8 -9.0°
